DateTimeUTC,F1_A11,F1_S11,BsB_S11,BsG_S11,BsR_S11,BbsB_S11,BbsG_S11,BbsR_S11,BaB_A11,BaG_A11,BaR_A11,Tu_S11,T_S11,Uu_S11,U_S11,P_S11,T1_A11
2021-04-22T05:00:00Z,00000200,21000000,,,,,,,-000.10,0000.14,-000.19,16.6,24.2,,00.0,0663.8,31.0
2021-04-22T05:01:00Z,00000200,21000000,,,,,,,0000.07,-000.03,-000.03,16.5,24.2,,00.0,0663.8,31.0
2021-04-22T05:02:00Z,00000200,21000000,,,,,,,-000.15,0000.03,0000.20,16.5,24.2,,00.0,0663.8,31.0
2021-04-22T05:03:00Z,00000200,61000000,,,,,,,0001.06,0000.77,0000.66,16.4,24.2,,00.0,0663.8,30.9
2021-04-22T05:04:00Z,00000200,41000000,0003.98,0002.66,0001.32,0000.49,0000.15,0000.30,0001.60,0001.32,0000.97,16.4,23.8,,00.0,0664.7,30.9
2021-04-22T05:05:00Z,00000200,01000000,0003.74,0002.20,0001.22,0000.89,0000.18,0000.40,0001.51,0000.99,0000.86,16.3,23.7,,00.0,0664.8,30.9
2021-04-22T05:06:00Z,00000200,01000000,0003.62,0002.64,0001.40,0000.49,0000.20,0000.17,0001.33,0001.42,0000.97,16.3,23.7,,00.0,0664.8,30.9
2021-04-22T05:07:00Z,00000200,01000000,0003.49,0002.40,0001.75,0001.08,0000.12,0000.46,0001.60,0001.65,0001.08,16.3,23.7,,00.0,0664.8,30.9
2021-04-22T05:08:00Z,00000200,01000000,0003.34,0002.72,0001.34,0000.57,0000.23,0000.22,0001.21,0001.38,0001.41,16.4,23.7,,00.0,0664.8,30.9
2021-04-22T05:09:00Z,00000200,01000000,0004.43,0002.32,0001.29,0000.67,0000.45,0000.09,0001.43,0000.97,0000.29,16.5,23.7,,00.0,0664.8,31.0
2021-04-22T05:10:00Z,00000200,01000000,0004.35,0002.68,0001.60,0000.14,0000.15,0000.62,0001.42,0001.38,0001.15,16.5,23.7,,00.0,0664.8,31.0
2021-04-22T05:11:00Z,00000200,01000000,0004.06,0002.42,0001.75,0000.80,0000.27,0000.57,0001.64,0001.50,0001.09,16.6,23.7,,00.0,0664.8,31.0
2021-04-22T05:12:00Z,00000200,01000000,0004.98,0002.43,0001.54,0000.45,0000.28,0000.43,0001.21,0001.00,0001.26,16.7,23.8,,00.0,0664.8,31.0
2021-04-22T05:13:00Z,00000200,01000000,0003.83,0002.67,0001.36,0000.79,0000.20,0000.48,0001.49,0001.45,0000.88,16.8,23.8,,00.0,0664.8,31.0
2021-04-22T05:14:00Z,00000200,01000000,0003.83,0002.65,0001.27,0001.30,0000.45,0000.30,0001.18,0001.13,0000.89,16.8,23.8,,00.0,0664.8,31.0
2021-04-22T05:15:00Z,00000200,01000000,0004.08,0002.31,0001.38,0000.78,0000.36,0000.21,0001.25,0001.19,0000.62,16.8,23.8,,00.0,0664.8,31.0
2021-04-22T05:16:00Z,00000200,01000000,0003.81,0002.76,0001.36,0001.18,0000.52,0000.50,0001.37,0000.92,0000.95,16.8,23.8,,00.0,0664.8,31.0
2021-04-22T05:17:00Z,00000200,01000000,0004.35,0002.82,0001.43,0000.62,0000.35,0000.34,0000.85,0001.16,0000.76,16.7,23.8,,00.0,0664.8,31.0
2021-04-22T05:18:00Z,00000200,01000000,0004.05,0002.78,0001.70,0000.86,0000.30,0000.51,0001.46,0000.88,0000.82,16.6,23.7,,00.0,0664.8,31.0
2021-04-22T05:19:00Z,00000200,01000000,0004.41,0002.96,0001.69,0000.75,0000.39,0000.24,0001.06,0001.55,0000.94,16.5,23.7,,00.0,0664.8,31.0
2021-04-22T05:20:00Z,00000200,01000000,0003.69,0002.97,0001.62,0000.40,0000.21,0000.37,0001.50,0000.84,0000.76,16.5,23.6,,00.0,0664.8,30.9
2021-04-22T05:21:00Z,00000200,01000000,0003.86,0002.56,0001.73,0001.18,0000.35,0000.61,0001.50,0001.23,0001.14,16.4,23.6,,00.0,0664.9,30.9
2021-04-22T05:22:00Z,00000200,01000000,0004.04,0002.77,0001.35,0000.52,0000.62,0000.28,0001.51,0001.63,0001.24,16.5,23.6,,00.0,0664.9,30.9
2021-04-22T05:23:00Z,00000200,01000000,0004.61,0002.81,0001.48,0000.61,0000.28,0000.25,0001.68,0001.71,0001.13,16.5,23.6,,00.0,0664.9,30.9
2021-04-22T05:24:00Z,00000200,01000000,0004.51,0002.87,0001.42,0000.23,0000.61,0000.52,0001.36,0001.25,0000.94,16.6,23.6,,00.0,0664.9,31.0
2021-04-22T05:25:00Z,00000200,01000000,0004.11,0002.71,0002.02,0001.01,0000.15,0000.37,0001.46,0001.22,0000.92,16.7,23.7,,00.0,0664.9,31.0
2021-04-22T05:26:00Z,00000200,01000000,0004.08,0002.67,0001.61,0000.97,0000.51,0000.32,0001.13,0001.14,0000.82,16.7,23.7,,00.0,0664.9,31.0
2021-04-22T05:27:00Z,00000200,01000000,0004.02,0002.53,0001.36,0000.17,0000.25,0000.13,0001.78,0001.49,0001.17,16.8,23.7,,00.0,0664.9,31.0
2021-04-22T05:28:00Z,00000200,01000000,0004.25,0002.41,0001.42,0000.86,0000.34,0000.43,0001.23,0001.20,0001.15,16.9,23.8,,00.0,0664.9,31.0
2021-04-22T05:29:00Z,00000200,01000000,0004.13,0002.26,0001.46,0000.51,0000.23,0000.46,0001.28,0001.03,0000.44,16.9,23.8,,00.0,0664.9,31.0
2021-04-22T05:30:00Z,00000200,01000000,0004.05,0002.39,0001.50,0000.72,0000.58,0000.65,0001.24,0000.97,0000.90,16.9,23.8,,00.0,0664.9,31.0
2021-04-22T05:31:00Z,00000200,01000000,0003.80,0001.95,0001.35,0000.70,0000.48,0000.58,0001.04,0001.41,0000.96,16.9,23.8,,00.0,0664.9,31.0
2021-04-22T05:32:00Z,00000200,01000000,0003.86,0002.50,0001.49,0000.53,0000.31,0000.28,0001.00,0000.78,0000.75,16.9,23.8,,00.0,0664.9,31.0
2021-04-22T05:33:00Z,00000200,01000000,0002.93,0002.81,0001.37,0000.69,0000.22,0000.52,0001.45,0001.01,0000.70,16.8,23.8,,00.0,0664.9,31.0
2021-04-22T05:34:00Z,00000200,01000000,0003.66,0002.46,0001.56,0000.44,0000.12,0000.58,0000.85,0001.05,0000.80,16.7,23.7,,00.0,0665.0,31.0
2021-04-22T05:35:00Z,00000200,01000000,0002.92,0002.33,0001.51,0000.32,0000.52,0000.48,0001.68,0001.37,0000.77,16.6,23.7,,00.0,0665.0,31.0
2021-04-22T05:36:00Z,00000200,01000000,0003.34,0002.30,0001.42,0000.73,0000.20,0000.30,0001.43,0001.34,0001.02,16.6,23.6,,00.0,0665.0,30.9
2021-04-22T05:37:00Z,00000200,01000000,0003.60,0002.37,0001.23,0000.38,0000.51,0000.13,0001.55,0001.27,0001.22,16.6,23.7,,00.0,0665.0,31.0
2021-04-22T05:38:00Z,00000200,01000000,0003.28,0002.27,0001.24,0000.34,0000.43,0000.34,0001.41,0001.69,0000.77,16.7,23.7,,00.0,0665.0,31.0
2021-04-22T05:39:00Z,00000200,01000000,0003.27,0002.10,0001.52,0000.31,0000.48,0000.44,0001.45,0001.11,0001.17,16.7,23.7,,00.0,0665.0,31.0
2021-04-22T05:40:00Z,00000200,01000000,0003.05,0002.39,0001.27,0000.54,0000.57,0000.37,0001.41,0001.07,0001.16,16.8,23.7,,00.0,0665.0,31.0
2021-04-22T05:41:00Z,00000200,01000000,0003.80,0002.44,0001.03,0001.14,0000.40,0000.43,0000.99,0000.73,0000.73,16.8,23.8,,00.0,0665.0,31.0
2021-04-22T05:42:00Z,00000200,01000000,0003.49,0002.45,0001.48,0000.45,0000.53,0000.42,0001.39,0001.85,0000.85,16.9,23.8,,00.0,0665.0,31.0
2021-04-22T05:43:00Z,00000200,01000000,0003.95,0002.53,0001.35,0000.45,0000.11,0000.56,0001.12,0001.09,0000.77,16.9,23.8,,00.0,0665.0,31.0
2021-04-22T05:44:00Z,00000200,01000000,0003.20,0002.25,0001.62,0000.27,0000.17,0000.39,0001.38,0000.68,0001.22,17.0,23.8,,00.0,0665.0,31.0
2021-04-22T05:45:00Z,00000200,01000000,0003.94,0002.03,0001.01,0000.73,0000.27,0000.63,0001.23,0001.16,0000.67,17.0,23.8,,00.0,0665.0,31.0
2021-04-22T05:46:00Z,00000200,01000000,0003.69,0002.20,0001.31,0000.75,0000.38,0000.37,0001.36,0001.16,0000.60,16.9,23.8,,00.0,0665.1,31.0
2021-04-22T05:47:00Z,00000200,01000000,0003.55,0002.29,0001.25,0000.70,0000.46,0000.23,0000.70,0001.20,0000.70,16.8,23.8,,00.0,0665.0,31.0
2021-04-22T05:48:00Z,00000200,01000000,0003.59,0002.15,0001.20,0000.62,0000.39,0000.35,0001.32,0000.97,0000.86,16.7,23.8,,00.0,0665.1,31.0
2021-04-22T05:49:00Z,00000200,01000000,0003.44,0002.35,0001.47,0000.81,0000.28,0000.33,0001.37,0001.23,0000.85,16.7,23.7,,00.0,0665.1,31.0
2021-04-22T05:50:00Z,00000200,01000000,0003.56,0002.17,0001.26,0000.22,0000.25,0000.58,0001.35,0001.08,0001.13,16.6,23.7,,00.0,0665.1,30.9
2021-04-22T05:51:00Z,00000200,01000000,0003.64,0002.65,0001.29,0000.85,0000.59,0000.39,0001.73,0001.30,0001.00,16.5,23.6,,00.0,0665.1,30.9
2021-04-22T05:52:00Z,00000200,01000000,0003.31,0002.33,0001.26,0000.35,0000.32,0000.62,0001.30,0001.42,0001.04,16.6,23.6,,00.0,0665.1,30.9
2021-04-22T05:53:00Z,00000200,01000000,0004.12,0002.22,0001.26,0000.40,0000.47,0000.32,0001.26,0001.41,0000.91,16.6,23.6,,00.0,0665.1,31.0
2021-04-22T05:54:00Z,00000200,01000000,0003.15,0002.80,0001.38,0000.53,0000.45,0000.50,0001.42,0001.03,0000.72,16.7,23.7,,00.0,0665.0,31.0
2021-04-22T05:55:00Z,00000200,01000000,0003.82,0002.90,0001.51,0000.52,0000.24,0000.42,0001.46,0001.25,0000.97,16.7,23.7,,00.0,0665.0,31.0
2021-04-22T05:56:00Z,00000200,01000000,0003.37,0002.57,0001.59,0000.50,0000.47,0000.38,0001.42,0001.34,0001.30,16.8,23.7,,00.0,0665.0,31.0
2021-04-22T05:57:00Z,00000200,41000000,,,,,,,0001.26,0001.35,0000.95,16.9,23.8,,00.0,0665.0,31.0
2021-04-22T05:58:00Z,00000200,61000000,,,,,,,0000.04,-000.16,0000.00,16.6,24.0,,00.0,0664.1,31.0
2021-04-22T05:59:00Z,00000200,21000000,,,,,,,-000.51,-000.55,-000.61,16.6,24.0,,00.0,0664.1,31.0
